Location: Austin
(30.3000°N, 97.7500°W)
Time: 01:55:09
(UTC-05:00)

MOS 1 Rocket - Pass Details

Date: 15 May 2024
Orbit: 612 x 820 km, 97.5° (Epoch: 19 May)

Event Time Altitude Azimuth Distance (km) Brightness Sun altitude
Exits shadow 22:58:34 37° 28° (NNE) 1,130 4.4 -28.9°
Drops below altitude 10° 23:01:53 10° 1° (N) 2,268 6.5 -29.4°
Sets 23:04:19 0° 356° (N) 3,228 7.5 -29.7°
